Terminal Aerodrome Forecast
Issued by NWS

Home | Current Version | Previous Version | Text Only | Print | Product List | Glossary On
Versions: 1 2 3 4 5 6 7 8 9 10 11 12 13 14 15 16
000
FTAK31 PAJN 300500
TAFAYA
TAF
PAYA 300540Z 3006/0106 VRB03KT P6SM SCT020 OVC060
     FM301200 VRB03KT P6SM VCSH SCT012 OVC025
     FM301800 14006KT 6SM -RA BR OVC015
     FM302100 14008KT P6SM -RA SCT015 OVC025
      AMD LTD TO CLD VIS AND WIND 3006/3010=

USA.gov is the U.S. government's official web portal to all federal, state and local government web resources and services.